Location: Huntsville
(41.2590°N, 111.7678°W)
Time: 18:44:02
(UTC+00:00)

Vanguard 1 - All Passes

Search period start: 18 June 2021 00:00
Search period end: 28 June 2021 00:00
Orbit: 650 x 3832 km, 34.2° (Epoch: 18 June)

Date Brightness Start Highest point End Pass type
(mag) Time Alt. Az. Time Alt. Az. Time Alt. Az.
18 Jun - 01:23:19 10° S 01:37:00 19° SE 01:49:52 10° E daylight
18 Jun - 03:39:44 10° SW 04:00:56 45° SSE 04:16:57 10° E visible
18 Jun - 06:04:01 10° WSW 06:25:40 64° S 06:38:39 10° E visible
18 Jun - 08:31:38 10° W 08:49:02 60° SSW 08:58:25 10° ESE visible
18 Jun - 10:59:29 10° W 11:09:27 28° SW 11:15:44 10° SSE visible
19 Jun - 01:41:04 10° S 01:57:43 26° SE 02:13:05 10° E daylight
19 Jun - 04:00:01 10° SW 04:22:03 51° SSE 04:38:13 10° E visible
19 Jun - 06:25:22 10° WSW 06:46:54 67° S 06:59:33 10° E visible
19 Jun - 08:53:15 10° W 09:09:56 55° SSW 09:18:59 10° SE visible
19 Jun - 11:21:38 10° W 11:29:41 21° SW 11:35:15 10° S visible
20 Jun - 01:59:50 10° SSW 02:18:30 33° SE 02:35:24 10° E daylight
20 Jun - 04:20:38 10° SW 04:43:15 58° SSE 04:59:22 10° E visible
20 Jun - 06:46:50 10° WSW 07:08:06 68° S 07:20:24 10° ESE visible
20 Jun - 09:14:55 10° W 09:30:40 48° SSW 09:39:25 10° SE visible
20 Jun - 11:44:32 10° W 11:49:48 14° SW 11:53:57 10° SSW daylight
21 Jun - 00:07:27 10° SSE 00:16:17 14° SE 00:25:16 10° ESE daylight
21 Jun - 02:19:16 10° SSW 02:39:22 40° SE 02:57:14 10° E daylight
21 Jun - 04:41:32 10° WSW 05:04:30 63° SSE 05:20:26 10° E visible
21 Jun - 07:08:24 10° W 07:29:17 67° S 07:41:12 10° ESE visible
21 Jun - 09:36:39 10° W 09:51:15 41° SW 09:59:40 10° SSE visible
22 Jun - 00:23:18 10° S 00:36:45 20° SE 00:50:33 10° E daylight
22 Jun - 02:39:10 10° SW 03:00:20 47° SSE 03:18:46 10° E daylight
22 Jun - 05:02:39 10° WSW 05:25:48 67° S 05:41:27 10° E visible
22 Jun - 07:30:01 10° W 07:50:22 63° SSW 08:01:54 10° ESE visible
22 Jun - 09:58:32 10° W 10:11:41 33° SW 10:19:40 10° SSE visible
23 Jun - 00:41:13 10° S 00:57:15 27° SE 01:13:49 10° E daylight
23 Jun - 02:59:28 10° SW 03:21:24 54° SSE 03:40:07 10° E visible
23 Jun - 05:23:57 10° WSW 05:47:07 69° S 06:02:26 10° E visible
23 Jun - 07:51:40 10° W 08:11:21 58° SSW 08:22:31 10° SE visible
23 Jun - 10:20:41 10° W 10:31:56 25° SW 10:39:17 10° S visible
24 Jun - 01:00:05 10° SSW 01:17:51 34° SE 01:36:13 10° E daylight
24 Jun - 03:20:03 10° SW 03:42:35 60° SSE 04:01:22 10° E visible
24 Jun - 05:45:23 10° W 06:08:27 70° S 06:23:21 10° ESE visible
24 Jun - 08:13:22 10° W 08:32:10 52° SSW 08:42:59 10° SE visible
24 Jun - 10:43:22 10° W 10:52:02 19° SW 10:58:17 10° SSW visible
24 Jun - 23:08:26 10° SSE 23:16:17 13° SE 23:24:40 10° ESE daylight
25 Jun - 01:19:34 10° SSW 01:38:34 41° SE 01:58:09 10° E daylight
25 Jun - 03:40:53 10° WSW 04:03:52 65° SSE 04:22:32 10° E visible
25 Jun - 06:06:54 10° W 06:29:43 69° S 06:44:13 10° ESE visible
25 Jun - 08:35:08 10° W 08:52:50 45° SSW 09:03:16 10° SE visible
25 Jun - 11:07:33 10° WSW 11:12:01 12° WSW 11:15:48 10° SW visible
25 Jun - 23:24:19 10° SSE 23:36:31 20° SE 23:50:12 10° E daylight
26 Jun - 01:39:29 10° SW 01:59:25 48° SSE 02:19:47 10° E daylight
26 Jun - 04:01:56 10° WSW 04:25:13 68° S 04:43:38 10° E visible
26 Jun - 06:28:28 10° W 06:50:55 66° SSW 07:05:00 10° ESE visible
26 Jun - 08:57:01 10° W 09:13:18 37° SW 09:23:17 10° SSE visible
26 Jun - 23:42:18 10° S 23:56:50 26° SE 00:13:37 10° E daylight
27 Jun - 01:59:44 10° SW 02:20:24 54° SSE 02:41:14 10° E daylight
27 Jun - 04:23:09 10° WSW 04:46:37 71° S 05:04:42 10° E visible
27 Jun - 06:50:04 10° W 07:12:00 61° SSW 07:25:39 10° SE visible
27 Jun - 09:19:09 10° W 09:33:36 29° SW 09:42:57 10° S visible
